Princeton, MN

7:09 PM CST on February 27, 2017 (GMT -0600)
Princeton Municipal

Weather History for KPNM - July, 2013

Change the Weather History Date:

Tuesday, July 23, 2013

  Actual Average Record
Temperature  
Mean Temperature 63 °F -  
Max Temperature 73 °F 79 °F 91 °F (2006)
Min Temperature 53 °F 57 °F 46 °F (2004)
Degree Days  
Heating Degree Days 2    
Growing Degree Days 13 (Base 50)    
Moisture  
Dew Point 52 °F    
Average Humidity 66    
Maximum Humidity 94    
Minimum Humidity 43    
Precipitation  
Precipitation 0.00 in - - ()
Sea Level Pressure  
Sea Level Pressure 29.98 in    
Wind  
Wind Speed 6 mph (North)    
Max Wind Speed 12 mph    
Max Gust Speed 17 mph    
Visibility 10 miles    
Events      
Averages and records for this station are not official NWS values.
T = Trace of Precipitation, MM = Missing Value Source: NWS Daily Summary

Daily Weather History Graph

Daily Weather History Graph

Search for Another Location

Airport or City:

Trip Planner

Search our weather history database for the weather conditions in past years. The results will help you decide how hot, cold, wet, or windy it might be!

Date:

Astronomy

Jul. 23, 2013 Rise Set
Actual Time 5:48 AM CDT 8:52 PM CDT
Civil Twilight 5:12 AM CDT 9:28 PM CDT
Nautical Twilight 4:27 AM CDT 10:13 PM CDT
Astronomical Twilight 3:31 AM CDT 11:08 PM CDT
Moon 9:12 PM CDT (7/23) 7:04 AM CDT (7/23)
Length of Visible Light 16h 15m
Length of Day
15h 04m
Full, 99% of the Moon is Illuminated
Jul 23
Full
Jul 29
Last Quarter
Aug 6
New
Aug 14
First Quarter
Aug 20
Full

Hourly Weather History & Observations

Time (CDT) Temp. Dew Point Humidity Pressure Visibility Wind Dir Wind Speed Gust Speed Precip Events Conditions
12:01 AM 64.4 °F 55.4 °F 73% 29.88 in 10.0 mi WNW 5.8 mph - N/A   Overcast
12:21 AM 62.6 °F 55.4 °F 77% 29.88 in 10.0 mi WNW 4.6 mph - N/A   Mostly Cloudy
12:41 AM 62.6 °F 55.4 °F 77% 29.89 in 10.0 mi WNW 5.8 mph - N/A   Mostly Cloudy
1:01 AM 62.6 °F 53.6 °F 72% 29.89 in 10.0 mi NW 5.8 mph - N/A   Overcast
1:21 AM 60.8 °F 53.6 °F 77% 29.89 in 10.0 mi WNW 5.8 mph - N/A   Scattered Clouds
1:41 AM 60.8 °F 53.6 °F 77% 29.90 in 10.0 mi WNW 4.6 mph - N/A   Clear
2:01 AM 59.0 °F 53.6 °F 82% 29.90 in 10.0 mi NW 4.6 mph - N/A   Clear
2:21 AM 59.0 °F 53.6 °F 82% 29.90 in 10.0 mi NW 4.6 mph - N/A   Clear
2:41 AM 57.2 °F 53.6 °F 88% 29.90 in 10.0 mi WNW 4.6 mph - N/A   Clear
3:01 AM 57.2 °F 53.6 °F 88% 29.90 in 10.0 mi NW 4.6 mph - N/A   Clear
3:21 AM 57.2 °F 53.6 °F 88% 29.91 in 10.0 mi WNW 3.5 mph - N/A   Clear
3:41 AM 55.4 °F 51.8 °F 88% 29.91 in 10.0 mi NW 4.6 mph - N/A   Clear
4:01 AM 55.4 °F 51.8 °F 88% 29.91 in 10.0 mi NW 4.6 mph - N/A   Clear
4:21 AM 55.4 °F 51.8 °F 88% 29.91 in 10.0 mi NW 4.6 mph - N/A   Clear
4:41 AM 55.4 °F 51.8 °F 88% 29.92 in 10.0 mi NW 5.8 mph - N/A   Clear
5:01 AM 55.4 °F 51.8 °F 88% 29.93 in 10.0 mi NW 3.5 mph - N/A   Clear
5:21 AM 55.4 °F 51.8 °F 88% 29.94 in 10.0 mi NNW 3.5 mph - N/A   Clear
5:41 AM 53.6 °F 51.8 °F 94% 29.95 in 10.0 mi NNW 3.5 mph - N/A   Clear
6:01 AM 53.6 °F 51.8 °F 94% 29.95 in 10.0 mi NNW 4.6 mph - N/A   Clear
6:21 AM 55.4 °F 51.8 °F 88% 29.95 in 10.0 mi NNW 4.6 mph - N/A   Clear
6:41 AM 55.4 °F 53.6 °F 94% 29.95 in 10.0 mi NNW 5.8 mph - N/A   Clear
7:01 AM 57.2 °F 53.6 °F 88% 29.96 in 10.0 mi NNW 5.8 mph - N/A   Clear
7:21 AM 59.0 °F 53.6 °F 82% 29.98 in 10.0 mi NNW 6.9 mph - N/A   Clear
7:41 AM 60.8 °F 53.6 °F 77% 29.99 in 10.0 mi North 6.9 mph - N/A   Clear
8:01 AM 60.8 °F 51.8 °F 72% 30.00 in 10.0 mi North 9.2 mph - N/A   Clear
8:21 AM 62.6 °F 51.8 °F 68% 30.00 in 10.0 mi North 10.4 mph - N/A   Clear
8:41 AM 62.6 °F 51.8 °F 68% 30.00 in 10.0 mi North 8.1 mph - N/A   Clear
9:01 AM 64.4 °F 51.8 °F 64% 30.00 in 10.0 mi North 9.2 mph - N/A   Clear
9:21 AM 64.4 °F 51.8 °F 64% 30.00 in 10.0 mi North 9.2 mph - N/A   Clear
9:41 AM 64.4 °F 50.0 °F 59% 30.01 in 10.0 mi North 10.4 mph 16.1 mph N/A   Clear
9:55 AM 64.4 °F 48.2 °F 56% 30.01 in 10.0 mi NNW 11.5 mph - N/A   Clear
10:11 AM 66.2 °F 50.0 °F 56% 30.01 in 10.0 mi North 10.4 mph 17.3 mph N/A   Clear
10:31 AM 66.2 °F 51.8 °F 60% 30.01 in 10.0 mi NNW 9.2 mph - N/A   Clear
10:52 AM 66.2 °F 50.0 °F 56% 30.02 in 10.0 mi NNW 4.6 mph - N/A   Clear
11:11 AM 68.0 °F 48.2 °F 49% 30.03 in 10.0 mi NNE 9.2 mph - N/A   Clear
11:31 AM 68.0 °F 50.0 °F 52% 30.03 in 10.0 mi North 10.4 mph - N/A   Clear
11:52 AM 69.8 °F 50.0 °F 49% 30.02 in 10.0 mi NNW 4.6 mph - N/A   Clear
12:11 PM 69.8 °F 50.0 °F 49% 30.02 in 10.0 mi NW 9.2 mph 16.1 mph N/A   Clear
12:31 PM 69.8 °F 50.0 °F 49% 30.02 in 10.0 mi North 4.6 mph - N/A   Clear
12:51 PM 71.6 °F 50.0 °F 46% 30.02 in 10.0 mi NW 10.4 mph - N/A   Scattered Clouds
1:11 PM 71.6 °F 51.8 °F 50% 30.02 in 10.0 mi North 9.2 mph - N/A   Scattered Clouds
1:31 PM 71.6 °F 50.0 °F 46% 30.02 in 10.0 mi NE 8.1 mph - N/A   Clear
1:51 PM 71.6 °F 50.0 °F 46% 30.02 in 10.0 mi North 5.8 mph - N/A   Clear
2:11 PM 71.6 °F 48.2 °F 43% 30.02 in 10.0 mi North 9.2 mph - N/A   Clear
2:31 PM 73.4 °F 50.0 °F 44% 30.02 in 10.0 mi NNE 6.9 mph - N/A   Clear
2:51 PM 71.6 °F 48.2 °F 43% 30.01 in 10.0 mi East 6.9 mph - N/A   Clear
3:11 PM 73.4 °F 51.8 °F 47% 30.02 in 10.0 mi North 4.6 mph - N/A   Clear
3:31 PM 73.4 °F 50.0 °F 44% 30.02 in 10.0 mi North 4.6 mph - N/A   Clear
3:51 PM 73.4 °F 51.8 °F 47% 30.01 in 10.0 mi North 8.1 mph - N/A   Clear
4:11 PM 73.4 °F 51.8 °F 47% 30.01 in 10.0 mi North 4.6 mph - N/A   Clear
4:31 PM 73.4 °F 51.8 °F 47% 30.01 in 10.0 mi NNE 5.8 mph - N/A   Scattered Clouds
4:51 PM 73.4 °F 50.0 °F 44% 30.00 in 10.0 mi NE 5.8 mph - N/A   Scattered Clouds
5:11 PM 73.4 °F 50.0 °F 44% 30.00 in 10.0 mi NE 6.9 mph - N/A   Scattered Clouds
5:31 PM 73.4 °F 50.0 °F 44% 30.00 in 10.0 mi ENE 5.8 mph - N/A   Scattered Clouds
5:51 PM 73.4 °F 50.0 °F 44% 30.00 in 10.0 mi NNE 5.8 mph - N/A   Clear
6:11 PM 73.4 °F 51.8 °F 47% 30.00 in 10.0 mi ENE 5.8 mph - N/A   Scattered Clouds
6:31 PM 73.4 °F 51.8 °F 47% 30.00 in 10.0 mi NE 6.9 mph - N/A   Scattered Clouds
6:51 PM 73.4 °F 51.8 °F 47% 30.00 in 10.0 mi NNE 5.8 mph - N/A   Scattered Clouds
7:11 PM 71.6 °F 51.8 °F 50% 30.01 in 10.0 mi NE 5.8 mph - N/A   Scattered Clouds
7:31 PM 71.6 °F 51.8 °F 50% 30.01 in 10.0 mi NNE 4.6 mph - N/A   Scattered Clouds
7:51 PM 69.8 °F 51.8 °F 53% 30.01 in 10.0 mi NNE 3.5 mph - N/A   Clear
8:11 PM 69.8 °F 51.8 °F 53% 30.01 in 10.0 mi NNE 3.5 mph - N/A   Clear
8:31 PM 68.0 °F 53.6 °F 60% 30.01 in 10.0 mi Calm Calm - N/A   Clear
8:51 PM 66.2 °F 53.6 °F 64% 30.02 in 10.0 mi NNE 3.5 mph - N/A   Clear
9:11 PM 64.4 °F 51.8 °F 64% 30.02 in 10.0 mi NNE 3.5 mph - N/A   Clear
9:31 PM 62.6 °F 53.6 °F 72% 30.02 in 10.0 mi Calm Calm - N/A   Clear
9:51 PM 60.8 °F 53.6 °F 77% 30.02 in 10.0 mi Calm Calm - N/A   Clear
10:11 PM 59.0 °F 53.6 °F 82% 30.03 in 10.0 mi Calm Calm - N/A   Clear
10:31 PM 55.4 °F 53.6 °F 94% 30.03 in 10.0 mi Calm Calm - N/A   Clear
10:51 PM 57.2 °F 53.6 °F 88% 30.04 in 10.0 mi Calm Calm - N/A   Clear
11:11 PM 55.4 °F 51.8 °F 88% 30.04 in 10.0 mi Calm Calm - N/A   Clear
11:31 PM 55.4 °F 53.6 °F 94% 30.03 in 10.0 mi Calm Calm - N/A   Clear
11:51 PM 55.4 °F 53.6 °F 94% 30.03 in 10.0 mi Calm Calm - N/A   Clear